Starlink 32803

operational
NORAD ID: 63024 Int'l Des: 2025-032 Owner: SPXS Country: US Constellation: starlink
LEOCIRCULAR

Über Starlink 32803

Beschreibung wird geladen...

Live-Position

3D-Globus wird geladen...

Nächste Überflüge

Höhenverlauf

Altitude vs Time

uPlot chart will show altitude changes over time

Zweizeiliger Elementsatz

1 63024U 25032V 25352.61793522 .00027922 00000-0 10201-2 0 9997
2 63024 43.0035 73.6786 0001551 272.0168 88.0506 15.27588396 48066
Epoch: 18. Dez. 2025 • Age: 7 hours

Aktueller Status

Höhe 487.2 km
Geschwindigkeit 7.63 km/s
Subsatellitenpunkt 43.04°N, 116.88°E
Startdatum 15. Feb. 2025
Alter 0.8 years
Typ internet

Technische Details

Klassifizierung Payload
Masse 730.00 kg
Trockenmasse 700.00 kg
Gesamtmasse 730.00 kg
Länge 0.30 m
Durchmesser 4.10 m
Spannweite 29.00 m
Form Box + pan
Hersteller SPXS
Bus-Typ Starlink V2M
Phasenstatus In Orbit
Besitzer/Staat SPXS/US

Große Konstellationen

Loading constellations...